STARLINK-35450

Last updated on Mon Oct 20 2025 00:02:07 GMT+0000 (Coordinated Universal Time)

1 65868U 25223Q 25292.25002315 -.01905458 00000+0 -21773-1 0 9999 2 65868 53.1598 234.9589 0001228 85.2588 33.0861 15.64689936 3736
UTC large
Height (km)
Speed (km/s)
/
Latitude / Longitude
Inclination (degrees)
Orbital Period (minutes)
Azimuth
Elevation
Range (km)
Doppler Factor

Next 0 passes for location: London (51.5072 / 0.1276)

Sorry there are no passes over London.